Home > Weather > Brăila > Past weeks

Flag for Romania Weather for the Past 2 Weeks in Brăila, Romania

Now
66 °F

Overcast.


Feels Like: 66 °F
Forecast: 50 / 68 °F
Wind: 5 mph from Northeast

Location: Galati

Current Time: May 5, 2016 at 3:29:45 PM

Latest Report: May 5, 2016 at 3:00 PM


Visibility: 13 mi

Pressure: 29.92 "Hg

Humidity: 57%

Dew Point: 50 °F

Location of BrăilaLocation

Historic Weather in Brăila — Graph

°F

Brăila Temperature Yesterday

Maximum temperature yesterday: 59 °F (at 12:00 PM)
Minimum temperature yesterday: 49 °F (at 6:00 AM)
Average temperature yesterday: 53 °F

High & Low Weather Summary for the Past Weeks

 TemperatureHumidityPressure
High74 °F (May 1, 3:00 PM)98% (Apr 24, 7:00 AM)30.26 "Hg (Apr 24, 7:00 AM)
Low40 °F (Apr 21, 7:00 AM)31% (Apr 28, 6:00 PM)29.44 "Hg (Apr 25, 3:00 AM)
Average56 °F69%29.91 "Hg
* Reported Apr 20 2:00 PM — May 5 2:00 PM, Brăila, Weather by CustomWeather, © 2016

Note: Actual official high and low records may vary slightly from our data, if they occured in-between our weather recording intervals... More about our weather records

Advertising

Brăila Weather History for the Previous 24 Hours

Scroll right to see more
 ConditionsComfort  
Time TempWeatherWind HumidityBarometerVisibility
2:00 PM
Thu, May 5
67 °FOvercast.3 mph59%29.92 "Hg12 mi
1:00 PM63 °FOvercast.6 mph59%29.92 "Hg12 mi
12:00 PM62 °FOvercast.5 mph67%29.92 "Hg12 mi
11:00 AM58 °FOvercast.3 mph78%29.91 "Hg12 mi
10:00 AM55 °FOvercast.3 mph84%29.92 "Hg6 mi
9:00 AM53 °FOvercast.5 mph87%29.90 "Hg6 mi
8:00 AM52 °FOvercast.3 mph90%29.90 "Hg6 mi
7:00 AM52 °FOvercast.3 mph90%29.88 "Hg6 mi
6:00 AM51 °FLight rain. Overcast.1 mph94%29.87 "Hg6 mi
5:00 AM52 °FOvercast.1 mph88%29.87 "Hg6 mi
4:00 AM53 °FLight rain. Overcast.1 mph86%29.86 "Hg6 mi
3:00 AM52 °FOvercast.No wind89%29.85 "Hg6 mi
2:00 AM52 °FOvercast.2 mph90%29.85 "Hg6 mi
1:00 AM51 °FOvercast.No wind93%29.85 "Hg6 mi
12:00 AM53 °FOvercast.1 mph84%29.87 "Hg6 mi
11:00 PM
Wed, May 4
53 °FOvercast.1 mph84%29.85 "Hg6 mi
10:00 PM53 °FOvercast.2 mph84%29.83 "Hg6 mi
9:00 PM53 °FOvercast.2 mph87%29.83 "Hg6 mi
8:00 PM54 °FOvercast.1 mph83%29.84 "Hg6 mi
7:00 PM54 °FOvercast.1 mph88%29.83 "Hg6 mi
6:00 PM54 °FOvercast.2 mph86%29.83 "Hg6 mi
5:00 PM54 °FLight rain. Overcast.3 mph86%29.82 "Hg6 mi
4:00 PM55 °FLight rain. Overcast.3 mph87%29.81 "Hg6 mi
3:00 PM55 °FSprinkles. Overcast.5 mph78%29.79 "Hg12 mi
Weather by CustomWeather, © 2016

See weather overviewHow to use our weather pages